Satellite: NOAA-17
Catalog number: 27453
Epoch time:      12081.70949284
Element set:    0643
Inclination:      098.3458 deg
RA of node:       113.1316 deg
Eccentricity:    0.0012540
Arg of perigee:   056.5795 deg
Mean anomaly:     303.6579 deg
Mean motion:   14.24405920 rev/day
Decay rate:        3.7e-07 rev/day^2
Epoch rev:           50630
Checksum:              298

Satellite: NOAA-18
Catalog number: 28654
Epoch time:      12081.81403768
Element set:    0120
Inclination:      099.0368 deg
RA of node:       039.2188 deg
Eccentricity:    0.0014999
Arg of perigee:   043.0189 deg
Mean anomaly:     317.2170 deg
Mean motion:   14.11619763 rev/day
Decay rate:       -3.1e-07 rev/day^2
Epoch rev:           35223
Checksum:              300

Satellite: NOAA-19
Catalog number: 33591
Epoch time:      12081.80226645
Element set:    0310
Inclination:      098.8581 deg
RA of node:       022.7048 deg
Eccentricity:    0.0013251
Arg of perigee:   269.2664 deg
Mean anomaly:     090.6988 deg
Mean motion:   14.11310772 rev/day
Decay rate:       2.46e-06 rev/day^2
Epoch rev:           16068
Checksum:              299

/EX
SB KEPS @ AMSAT  $ORB12082.M
Orbital Elements  12082.MISC

HR AMSAT ORBITAL ELEMENTS FOR MANNED AND MISCELLANEOUS SATELLITES
FROM WA5QGD FORT WORTH,TX March 22, 2012
Send SUBSCRIBE KEPS/UNSUBSCRIBE KEPS to majordomo@amsat.org only
BID: ORB12082.M
TO ALL RADIO AMATEURS BT

Satellite: HUBBLE
Catalog number: 20580
Epoch time:      12082.17000933
Element set:     967
Inclination:      028.4714 deg
RA of node:       352.8983 deg
Eccentricity:    0.0003513
Arg of perigee:   209.0182 deg
Mean anomaly:     151.0101 deg
Mean motion:   15.02295563 rev/day
Decay rate:      1.521e-05 rev/day^2
Epoch rev:             163
Checksum:              245

Satellite: ISS
Catalog number: 25544
Epoch time:      12083.07342593
Element set:     231
Inclination:      051.6423 deg
RA of node:       193.7400 deg
Eccentricity:    0.0016398
Arg of perigee:   185.6950 deg
Mean anomaly:     169.9923 deg
Mean motion:   15.59465667 rev/day
Decay rate:     1.5714e-04 rev/day^2
Epoch rev:           76458
Checksum:              327

Satellite: CO-58
Catalog number: 28895
Epoch time:      12081.60019920
Element set:    0129
Inclination:      097.9286 deg
RA of node:       311.6656 deg
Eccentricity:    0.0018815
Arg of perigee:   067.9596 deg
Mean anomaly:     292.3586 deg
Mean motion:   14.60529270 rev/day
Decay rate:       5.12e-06 rev/day^2
Epoch rev:           34087
Checksum:              341

Satellite: FALCON
Catalog number: 30776
Epoch time:      12081.42065221
Element set:    0314
Inclination:      035.4322 deg
RA of node:       092.6491 deg
Eccentricity:    0.0002693
Arg of perigee:   317.0139 deg
Mean anomaly:     043.0368 deg
Mean motion:   15.06883758 rev/day
Decay rate:      2.980e-05 rev/day^2
Epoch rev:           27700
Checksum:              277

Satellite: MAST
Catalog number: 31126
Epoch time:      12081.97054500
Element set:    0424
Inclination:      097.8791 deg
RA of node:       098.1657 deg
Eccentricity:    0.0094608
Arg of perigee:   023.0598 deg
Mean anomaly:     337.4799 deg
Mean motion:   14.54074151 rev/day
Decay rate:       5.94e-06 rev/day^2
Epoch rev:           26159
Checksum:              320

Satellite: CAPE1
Catalog number: 31130
Epoch time:      12082.75906214
Element set:     425
Inclination:      097.8840 deg
RA of node:       095.3462 deg
Eccentricity:    0.0102353
Arg of perigee:   033.4856 deg
Mean anomaly:     327.2750 deg
Mean motion:   14.52822047 rev/day
Decay rate:       4.77e-06 rev/day^2
Epoch rev:           26122
Checksum:              276

Satellite: COMPASS
Catalog number: 32787
Epoch time:      12081.33699243
Element set:    0256
Inclination:      097.8094 deg
RA of node:       144.5993 deg
Eccentricity:    0.0014869
Arg of perigee:   353.0446 deg
Mean anomaly:     007.0559 deg
Mean motion:   14.83650445 rev/day
Decay rate:      1.901e-05 rev/day^2
Epoch rev:           21078
Checksum:              319

Satellite: AAUSAT2
Catalog number: 32788
Epoch time:      12081.86427899
Element set:     246
Inclination:      097.8136 deg
RA of node:       145.4528 deg
Eccentricity:    0.0014266
Arg of perigee:   352.8926 deg
Mean anomaly:     007.2052 deg
Mean motion:   14.83942274 rev/day
Decay rate:      1.594e-05 rev/day^2
Epoch rev:           21088
Checksum:              330

Satellite: DO-64
Catalog number: 32789
Epoch time:      12081.72278705
Element set:    0262
Inclination:      097.8209 deg
RA of node:       147.0212 deg
Eccentricity:    0.0014500
Arg of perigee:   348.6791 deg
Mean anomaly:     011.4083 deg
Mean motion:   14.85185474 rev/day
Decay rate:      2.504e-05 rev/day^2
Epoch rev:           21089
Checksum:              303

Satellite: CO-66
Catalog number: 32791
Epoch time:      12081.15896576
Element set:    0251
Inclination:      097.8107 deg
RA of node:       144.2331 deg
Eccentricity:    0.0015573
Arg of perigee:   353.1044 deg
Mean anomaly:     006.9922 deg
Mean motion:   14.83130797 rev/day
Decay rate:      1.607e-05 rev/day^2
Epoch rev:           21069
Checksum:              304

